Temp
16 17 17 18 18 19 19 20 21 21 21 22 22 23 23 24 24 25 25 25 25 25 25 25 25 25 24 23 23 22 24 24 24 23 24 20 22 21 21 22 21 21 21 21 20
17 17 17 18 18 19 19 20 20 21 21 22 22 23 23 24 25 25 25 25 25 25 25 25 25 25 24 23 22 24 23 25 25 25 24 22 22 22 23 22 22 21 20 20 19
17 17 17 18 18 18 19 19 20 20 21 21 22 22 23 24 25 25 25 26 25 25 25 25 25 25 25 23 24 23 24 25 25 25 23 22 21 21 23 24 23 23 19 17 17
17 17 18 18 18 18 19 19 19 20 20 20 21 22 23 23 25 25 25 26 26 26 25 26 25 25 26 26 24 25 24 24 25 24 23 22 22 22 22 23 22 22 20 17 17
16 17 17 18 18 18 19 19 19 19 20 20 21 21 22 23 25 25 25 26 26 26 25 26 25 24 26 26 25 25 26 25 25 24 24 22 23 23 23 22 23 22 20 18 18
17 17 17 18 18 19 19 19 19 19 20 20 20 21 21 22 24 25 25 26 26 25 25 25 25 25 25 26 26 26 26 26 25 25 24 24 23 22 23 22 21 21 19 19 18
17 17 18 18 18 19 19 19 19 20 20 20 20 21 21 24 24 25 25 25 25 25 25 25 25 25 24 27 25 25 26 26 26 25 26 24 25 24 22 22 21 21 20 19 19
17 17 18 18 19 19 19 20 20 20 20 20 20 20 22 24 24 24 25 25 25 25 25 25 25 25 25 25 26 25 25 26 26 25 25 25 26 26 22 22 22 21 21 20 20
17 18 19 19 19 19 20 20 20 20 20 20 20 20 22 24 24 25 25 25 25 25 24 25 25 24 24 27 27 25 26 25 26 25 25 25 27 25 22 22 22 21 21 21 20
18 18 19 19 19 19 19 20 20 20 20 20 20 20 24 24 25 25 24 25 24 24 24 24 24 26 26 27 26 25 25 25 25 26 26 26 26 28 22 22 23 22 22 21 21
18 19 19 19 19 19 19 20 19 20 19 22 22 22 23 24 24 25 25 24 24 24 26 23 26 26 27 25 24 24 25 25 27 27 25 25 25 27 25 23 23 22 22 22 22
19 19 19 20 20 20 20 20 20 20 21 21 21 22 23 24 24 24 25 25 24 25 23 25 26 26 24 24 24 24 25 27 27 26 26 26 27 28 26 24 24 23 23 23 22
19 20 20 20 20 20 20 20 20 20 20 21 22 22 23 24 24 24 24 25 25 24 24 25 26 24 25 25 25 26 26 26 26 26 26 25 27 26 26 24 23 23 23 23 23
19 20 20 20 20 21 21 20 20 20 23 24 22 23 23 24 25 25 25 25 24 25 24 25 25 25 25 25 26 27 26 25 25 26 27 26 27 27 25 26 24 25 23 23 23
19 20 20 20 21 21 20 21 21 20 25 25 23 23 23 24 25 24 25 25 25 25 24 26 25 25 25 27 26 27 26 25 25 26 25 27 27 29 25 29 29 28 25 24 23
19 20 20 20 20 21 21 21 21 24 24 25 23 24 24 24 25 24 25 25 24 25 24 25 24 26 27 26 26 27 27 25 23 25 27 25 27 29 29 27 28 27 26 24 23
19 20 20 20 20 21 21 21 24 25 25 25 25 25 25 25 26 26 26 26 26 25 25 25 26 25 26 26 25 26 26 26 26 27 27 24 25 28 28 28 27 25 25 24 23
19 20 20 20 21 21 21 23 24 24 25 25 25 25 26 25 25 25 25 25 24 25 24 25 26 26 25 27 28 26 27 27 25 26 27 23 27 30 27 27 25 25 24 24 23
20 20 20 20 21 21 21 23 24 24 24 25 25 26 25 25 25 25 24 23 24 24 25 25 25 25 26 27 28 25 26 26 26 22 25 27 27 29 28 29 28 27 26 25 24
21 20 20 21 21 22 22 20 22 22 23 24 25 24 25 25 25 25 23 23 23 23 22 24 24 26 27 26 25 27 26 27 26 25 26 26 25 28 29 28 28 29 27 26 25
21 21 20 21 21 22 23 21 22 22 21 24 25 24 24 24 24 23 22 22 22 23 22 24 23 26 26 27 27 26 26 24 26 26 27 27 28 27 28 27 26 27 27 26 25
21 21 20 21 21 15 22 20 20 22 21 23 23 23 23 22 23 23 23 23 21 22 23 22 23 24 26 27 24 25 25 26 27 25 24 25 27 25 27 26 25 26 25 24 24
21 20 20 20 22 21 19 22 21 22 21 22 22 21 21 21 23 22 22 21 21 22 22 22 23 23 25 26 24 24 24 23 23 23 23 26 28 25 25 25 24 24 23 23 23
20 21 20 20 17 19 20 21 22 20 20 20 20 21 22 21 20 21 22 21 20 20 19 20 21 22 23 24 22 23 23 23 23 23 25 25 26 27 25 24 23 22 22 21 20
19 15 15 20 19 17 18 19 21 21 20 19 21 21 21 21 21 20 20 20 20 18 19 21 20 20 21 21 21 21 22 23 22 23 23 25 24 25 21 21 20 19 19 19 19
16 16 15 14 14 18 17 18 20 19 20 20 20 20 20 20 20 20 20 19 20 19 19 19 19 18 19 21 21 20 22 22 22 22 22 23 23 21 20 20 19 18 17 17 17
15 15 15 12 16 18 17 18 18 17 18 18 18 19 19 19 17 18 18 17 18 18 18 18 19 18 19 18 20 21 21 20 21 20 20 22 20 19 20 19 16 16 16 16 16
Height
1527 1526 1526 1526 1525 1525 1525 1525 1525 1525 1525 1525 1525 1524 1524 1524 1524 1524 1524 1526 1526 1526 1526 1526 1525 1525 1524 1524 1523 1523 1525 1528 1525 1525 1521 1526 1526 1527 1526 1526 1528 1528 1528 1530 1531
1526 1526 1526 1525 1525 1524 1524 1524 1524 1524 1524 1524 1524 1524 1523 1523 1523 1523 1524 1524 1525 1526 1526 1527 1526 1525 1524 1524 1525 1524 1528 1525 1521 1522 1521 1523 1524 1524 1526 1525 1525 1526 1526 1528 1530
1525 1525 1525 1524 1523 1523 1523 1523 1523 1523 1523 1523 1523 1523 1523 1522 1523 1522 1522 1523 1525 1526 1527 1527 1526 1526 1525 1525 1525 1524 1524 1522 1520 1521 1522 1523 1524 1524 1523 1522 1523 1524 1525 1528 1530
1525 1524 1523 1523 1522 1522 1522 1521 1522 1521 1521 1521 1522 1522 1522 1522 1525 1521 1522 1523 1524 1526 1527 1527 1527 1526 1526 1525 1526 1525 1522 1523 1521 1520 1522 1522 1523 1522 1523 1522 1522 1523 1524 1527 1530
1524 1523 1522 1521 1521 1520 1520 1520 1520 1520 1520 1521 1521 1521 1521 1522 1521 1521 1521 1522 1524 1526 1527 1527 1527 1527 1526 1526 1525 1524 1522 1521 1520 1520 1520 1521 1521 1522 1520 1520 1521 1522 1524 1528 1531
1523 1521 1520 1520 1519 1519 1519 1519 1519 1519 1519 1520 1520 1520 1521 1522 1519 1520 1521 1522 1524 1526 1527 1527 1527 1527 1527 1526 1525 1523 1521 1520 1520 1519 1519 1519 1520 1521 1517 1518 1520 1522 1525 1528 1530
1521 1520 1519 1518 1517 1517 1517 1517 1518 1518 1518 1519 1519 1519 1519 1518 1518 1519 1521 1522 1524 1526 1527 1527 1527 1528 1527 1525 1525 1523 1521 1518 1519 1519 1519 1519 1517 1513 1515 1517 1520 1522 1524 1527 1529
1520 1518 1517 1516 1515 1515 1515 1516 1516 1517 1517 1518 1518 1518 1516 1515 1517 1519 1521 1522 1524 1525 1527 1527 1527 1527 1527 1527 1525 1525 1523 1527 1519 1520 1519 1520 1516 1508 1511 1513 1518 1520 1522 1525 1526
1518 1516 1515 1514 1514 1514 1514 1514 1515 1515 1516 1516 1517 1518 1515 1515 1516 1518 1521 1522 1523 1525 1526 1527 1527 1527 1528 1527 1527 1528 1532 1531 1525 1520 1520 1520 1512 1509 1509 1512 1515 1517 1519 1521 1525
1516 1514 1513 1512 1512 1512 1512 1513 1513 1514 1515 1516 1516 1519 1514 1515 1516 1518 1520 1522 1524 1524 1526 1527 1527 1526 1528 1528 1540 1540 1535 1529 1530 1521 1518 1517 1509 1504 1509 1510 1510 1512 1515 1517 1519
1513 1511 1510 1509 1510 1510 1511 1512 1516 1516 1513 1512 1513 1512 1513 1514 1515 1517 1520 1522 1523 1525 1525 1528 1527 1529 1525 1531 1533 1534 1534 1532 1517 1517 1518 1513 1508 1497 1503 1505 1504 1506 1508 1511 1511
1510 1508 1507 1507 1508 1509 1510 1510 1511 1513 1512 1509 1510 1511 1512 1514 1516 1516 1519 1523 1524 1525 1527 1528 1528 1525 1529 1530 1532 1532 1531 1525 1515 1516 1516 1508 1503 1493 1496 1494 1495 1498 1500 1503 1508
1506 1505 1504 1504 1505 1507 1508 1509 1510 1511 1512 1509 1508 1509 1511 1514 1514 1515 1518 1520 1522 1525 1526 1528 1525 1525 1525 1528 1530 1525 1527 1525 1525 1513 1510 1510 1501 1494 1490 1491 1491 1492 1493 1497 1499
1502 1501 1501 1503 1507 1505 1507 1508 1509 1510 1511 1509 1509 1508 1510 1511 1514 1514 1516 1520 1522 1522 1526 1524 1521 1523 1524 1526 1524 1524 1518 1520 1521 1521 1522 1512 1520 1495 1492 1489 1488 1486 1487 1488 1493
1499 1498 1499 1501 1503 1506 1508 1507 1508 1511 1523 1508 1509 1509 1509 1512 1512 1514 1515 1518 1520 1522 1525 1522 1520 1522 1523 1518 1519 1518 1517 1519 1519 1519 1520 1512 1518 1491 1492 1484 1480 1479 1479 1482 1486
1498 1497 1498 1501 1503 1506 1506 1507 1510 1513 1526 1507 1507 1508 1510 1511 1511 1513 1516 1518 1519 1520 1521 1518 1517 1516 1512 1514 1515 1515 1515 1519 1522 1520 1524 1519 1516 1497 1490 1488 1476 1477 1477 1478 1481
1498 1497 1498 1501 1504 1505 1506 1509 1511 1514 1505 1509 1506 1506 1507 1509 1509 1510 1513 1515 1518 1526 1524 1515 1508 1507 1509 1513 1514 1515 1517 1528 1529 1526 1526 1520 1519 1497 1488 1482 1480 1475 1474 1474 1477
1498 1498 1499 1502 1504 1506 1507 1509 1516 1509 1506 1504 1504 1505 1506 1508 1511 1511 1514 1516 1517 1518 1524 1523 1518 1504 1506 1505 1507 1512 1512 1523 1541 1531 1520 1523 1515 1489 1486 1484 1480 1475 1473 1472 1474
1500 1499 1501 1503 1505 1507 1509 1511 1511 1508 1506 1504 1504 1506 1509 1508 1509 1512 1517 1520 1518 1517 1524 1523 1518 1504 1503 1502 1504 1514 1516 1507 1518 1533 1527 1510 1500 1484 1483 1480 1478 1476 1473 1473 1472
1501 1502 1503 1505 1506 1507 1508 1515 1510 1508 1506 1505 1507 1508 1511 1512 1511 1511 1518 1521 1519 1518 1518 1516 1522 1502 1500 1500 1504 1503 1505 1512 1514 1531 1530 1513 1513 1497 1483 1480 1475 1473 1473 1473 1472
1501 1503 1506 1506 1507 1508 1509 1511 1509 1508 1507 1505 1506 1509 1513 1514 1513 1517 1523 1522 1520 1517 1517 1516 1521 1507 1502 1500 1499 1506 1505 1509 1507 1508 1513 1516 1500 1480 1481 1481 1480 1475 1473 1472 1470
1500 1503 1506 1507 1509 1513 1509 1512 1510 1508 1506 1506 1507 1509 1512 1517 1517 1519 1520 1520 1521 1519 1518 1520 1517 1517 1505 1497 1501 1500 1502 1500 1503 1511 1512 1510 1498 1478 1478 1479 1478 1474 1475 1474 1471
1501 1505 1507 1507 1508 1510 1512 1511 1512 1509 1510 1509 1513 1515 1516 1519 1521 1519 1520 1520 1520 1519 1519 1518 1518 1519 1506 1499 1500 1503 1504 1506 1507 1506 1509 1503 1491 1478 1480 1482 1481 1478 1476 1474 1472
1502 1505 1508 1508 1511 1511 1511 1513 1512 1513 1514 1515 1517 1517 1517 1520 1521 1521 1519 1519 1520 1520 1520 1520 1519 1517 1518 1509 1512 1509 1505 1504 1505 1508 1497 1495 1486 1478 1484 1485 1482 1480 1477 1476 1473
1501 1509 1510 1509 1512 1514 1514 1516 1515 1516 1516 1517 1519 1519 1520 1522 1522 1522 1522 1521 1520 1520 1521 1520 1523 1520 1513 1512 1511 1509 1506 1502 1506 1499 1503 1490 1492 1487 1492 1491 1488 1485 1480 1478 1475
1505 1509 1511 1514 1515 1515 1517 1519 1518 1519 1519 1519 1519 1521 1521 1522 1522 1524 1523 1524 1521 1521 1521 1521 1522 1522 1517 1508 1508 1509 1501 1498 1496 1496 1495 1492 1492 1494 1493 1492 1489 1486 1483 1479 1477
1509 1510 1511 1516 1516 1515 1519 1520 1520 1520 1522 1521 1521 1521 1522 1523 1524 1523 1523 1524 1524 1523 1521 1522 1520 1522 1517 1516 1510 1507 1500 1500 1495 1494 1494 1492 1493 1494 1492 1492 1491 1489 1486 1482 1479
Wind_Speed
5 4 4 3 3 4 4 4 4 4 4 4 4 5 5 5 6 5 3 3 4 2 1 2 2 5 9 4 2 2 2 2 1 1 4 6 3 4 3 2 2 4 2 3 23
5 5 4 4 4 4 5 5 5 5 5 5 5 5 6 6 6 5 3 3 4 3 1 1 2 7 3 2 2 2 1 2 1 2 2 4 5 4 3 2 3 3 4 9 27
6 6 5 5 5 5 5 5 5 5 5 5 5 5 5 5 5 2 3 5 7 5 2 1 3 4 3 3 2 0 1 0 3 5 2 4 3 2 3 5 6 5 11 19 26
7 6 5 5 5 5 5 5 5 5 5 5 5 5 5 3 4 5 4 6 8 5 3 0 3 3 3 4 2 3 5 5 2 4 6 4 1 4 10 3 3 7 10 21 25
8 7 6 6 5 5 5 5 5 5 4 4 4 4 4 5 5 6 2 7 10 7 4 1 2 2 3 4 2 3 6 2 5 5 6 5 8 5 9 9 6 9 13 20 21
8 8 7 6 6 6 5 5 5 5 4 4 4 4 4 4 8 7 3 6 9 8 4 2 1 4 2 3 2 8 9 6 2 7 5 6 3 3 2 12 11 14 16 18 20
9 8 7 7 6 6 5 5 4 5 4 5 5 5 8 9 8 9 6 7 7 6 4 2 0 4 3 2 8 7 6 6 0 3 3 6 9 11 6 13 15 16 17 18 19
10 9 8 7 6 5 5 4 4 4 4 5 5 5 6 4 10 9 11 6 6 8 6 3 1 3 2 5 4 4 2 5 3 1 1 5 10 5 11 18 18 18 19 19 21
12 10 8 7 6 5 5 4 4 5 5 5 5 4 3 3 8 11 12 4 5 7 7 4 2 1 2 5 3 5 4 6 7 2 1 7 13 3 11 17 18 20 21 22 20
11 10 8 7 6 5 4 4 4 5 5 6 7 4 1 3 8 12 12 6 4 6 5 2 1 2 1 4 4 5 5 6 8 4 5 10 20 15 10 17 21 21 22 23 24
12 10 9 8 5 5 4 3 2 3 8 5 2 0 3 6 7 11 11 8 4 3 3 2 5 8 8 1 1 4 7 11 15 7 6 5 15 19 12 20 22 23 24 25 28
14 10 9 7 6 6 6 4 3 1 4 7 14 12 6 2 2 8 14 6 4 3 2 3 9 5 3 2 3 5 8 9 12 3 5 7 13 15 9 17 26 25 27 28 25
16 11 8 6 5 6 7 6 3 3 1 2 3 6 10 7 3 7 15 8 3 4 3 4 1 8 4 4 7 7 5 5 7 13 1 7 9 7 3 13 14 23 26 27 28
14 8 6 5 4 6 7 5 6 6 2 2 1 2 9 6 3 8 14 8 2 6 5 5 3 5 4 7 7 6 5 7 9 7 6 4 8 7 4 7 10 16 22 27 28
10 4 5 8 7 11 5 2 6 7 2 1 4 5 7 5 4 6 16 9 4 4 4 1 3 5 6 6 7 4 1 5 7 4 5 3 4 4 5 7 10 6 16 21 24
8 2 6 11 13 8 3 9 4 2 3 3 5 5 6 2 2 5 5 4 3 4 5 10 4 5 6 3 7 4 10 1 1 1 5 4 4 4 4 8 16 9 6 14 19
6 2 7 12 10 5 7 8 2 1 1 2 2 5 4 5 3 3 9 10 7 3 4 6 9 3 8 7 4 5 3 3 3 3 2 3 4 8 11 11 11 13 6 7 16
6 4 9 12 10 7 8 2 2 1 3 1 2 5 3 2 2 2 4 6 4 5 3 5 1 3 5 5 0 4 4 3 4 4 3 1 4 2 4 7 8 7 1 3 13
6 11 12 12 7 5 2 1 1 1 2 3 3 3 2 2 2 3 3 4 2 6 6 3 5 1 5 4 4 4 5 1 2 1 3 2 4 10 4 4 8 9 9 1 7
11 12 9 8 7 4 1 0 0 2 4 1 2 1 2 3 2 2 2 5 3 2 4 1 6 2 1 2 1 7 7 3 2 3 5 3 4 7 5 7 10 12 12 10 6
8 5 5 6 4 1 1 1 2 2 2 1 2 3 3 3 2 2 2 3 5 5 2 1 3 2 4 4 0 3 4 2 2 3 5 8 5 6 6 2 9 13 15 14 14
3 3 8 2 2 2 1 1 5 5 7 4 4 5 3 4 2 2 2 2 7 4 2 3 2 5 8 2 3 2 2 4 6 5 2 4 7 2 8 2 11 16 16 18 19
5 6 4 6 2 2 1 2 6 5 6 5 4 6 4 3 1 1 1 1 7 5 3 3 2 6 7 5 3 2 2 2 1 2 7 7 7 4 1 7 14 15 14 18 18
4 3 2 4 4 1 2 3 3 7 6 6 3 3 2 2 4 1 1 1 9 3 3 1 2 7 11 10 5 8 8 7 5 5 5 7 9 10 10 11 16 17 16 16 16
4 3 2 2 3 3 2 1 2 3 4 8 3 4 2 1 2 1 1 4 4 3 2 2 5 6 13 13 13 14 17 17 14 15 10 12 12 8 11 12 13 15 17 18 20
4 2 4 3 2 2 3 2 2 2 4 2 3 1 1 2 2 2 2 2 3 1 2 3 4 2 10 11 9 9 13 14 15 15 17 17 15 8 9 13 13 16 19 20 21
9 6 3 3 2 2 1 2 2 1 3 4 1 1 3 2 6 10 8 6 6 6 4 3 2 2 4 4 8 11 6 6 8 3 5 7 4 11 9 13 13 16 19 20 21
Wind_Direction
2 359 346 331 306 290 277 272 272 266 262 266 276 287 291 294 300 304 346 135 175 184 99 30 349 342 349 23 24 29 49 33 5 296 352 148 160 182 192 203 154 165 154 173 166
347 344 337 322 306 290 283 275 271 270 264 266 269 274 281 288 290 298 226 183 179 165 81 358 329 343 10 28 26 19 38 340 271 208 285 164 183 157 199 192 228 221 235 184 169
342 336 329 314 305 297 288 283 279 274 266 262 265 270 273 284 295 203 206 209 205 209 225 352 359 4 35 8 11 350 290 354 323 224 210 182 214 199 220 245 230 226 169 165 167
347 338 326 308 301 298 291 285 279 271 265 266 268 268 265 237 186 182 213 208 207 207 198 241 16 10 20 15 353 302 269 262 308 214 159 187 180 213 222 234 281 215 177 166 173
341 335 327 309 297 288 286 283 277 269 259 258 265 267 264 236 225 182 177 189 191 192 188 188 59 3 21 344 329 266 327 317 248 195 233 195 234 227 245 225 248 179 168 173 180
332 328 323 312 298 285 281 279 276 266 256 258 264 264 257 245 215 205 164 163 167 188 193 187 9 348 56 339 348 318 302 308 275 219 237 244 264 193 260 182 166 173 174 181 187
328 322 315 309 302 286 275 272 269 263 258 257 260 267 265 232 199 200 177 161 174 189 182 174 190 354 346 346 329 314 327 337 40 222 240 215 263 237 194 177 175 180 182 188 198
325 318 308 304 300 286 272 264 262 258 255 255 261 272 253 206 199 193 183 171 192 189 166 168 239 330 8 321 354 359 47 355 27 227 292 207 286 307 192 177 188 190 190 198 205
327 317 305 299 294 281 267 250 245 246 246 256 270 266 260 200 184 181 173 175 185 181 174 170 286 69 68 3 320 20 334 334 331 339 274 226 289 341 183 191 197 199 200 202 209
328 319 309 295 285 272 260 242 238 250 248 251 251 291 87 118 169 175 167 142 135 150 140 152 93 271 128 338 301 340 324 309 304 295 268 267 269 270 213 205 211 208 208 207 209
328 315 300 285 271 259 240 211 248 264 228 210 154 134 95 111 158 187 190 180 144 114 170 56 220 228 267 183 303 284 286 306 299 310 280 258 270 286 231 217 223 215 214 215 213
327 312 292 273 255 239 217 200 207 189 313 258 249 249 223 105 113 183 198 170 153 162 145 200 249 236 164 157 240 252 293 311 296 216 291 303 288 283 233 231 223 217 217 218 219
323 303 277 258 239 227 212 205 224 243 281 298 248 243 235 233 214 189 174 165 145 167 176 223 141 114 165 229 253 252 268 288 298 325 288 301 290 291 251 252 248 233 234 227 219
324 299 253 221 210 185 167 194 241 220 320 121 171 166 168 176 195 190 180 170 140 220 181 260 229 237 240 255 217 287 219 269 308 332 323 350 309 293 341 285 241 253 232 229 223
335 304 209 178 152 146 155 217 148 155 115 115 111 147 162 176 133 174 185 195 192 165 202 283 199 194 211 240 187 275 179 311 313 287 286 263 265 274 320 338 333 279 236 228 221
353 2 175 166 150 149 162 154 137 225 91 122 126 161 162 196 124 119 163 168 141 185 221 260 220 234 239 163 205 308 296 246 107 283 279 27 286 286 356 328 320 324 271 226 214
12 59 149 155 152 142 142 154 204 63 329 56 123 166 178 171 184 142 180 194 212 216 250 305 257 254 218 258 176 204 266 291 240 212 299 93 274 268 319 328 319 318 289 222 205
30 91 134 147 146 137 150 226 91 64 38 55 80 126 151 139 77 115 133 210 230 239 297 308 356 169 156 208 86 181 226 251 290 275 315 119 250 295 330 319 345 2 38 180 196
79 103 121 144 143 142 176 74 114 31 351 349 115 101 80 82 102 129 70 358 323 216 231 234 253 238 202 187 221 137 208 33 183 132 264 270 267 274 235 9 34 35 47 79 208
108 106 102 127 128 135 90 131 252 267 321 250 128 354 119 40 145 91 97 10 348 350 241 318 276 277 145 168 110 242 142 216 206 232 261 209 267 277 311 348 355 6 16 357 286
137 107 131 118 114 122 155 220 292 313 342 343 106 105 78 52 55 73 75 49 356 8 117 290 253 273 269 215 238 167 212 179 255 241 266 270 254 220 213 326 334 331 342 344 337
110 85 140 64 88 39 119 225 348 345 22 60 77 64 56 42 56 112 135 90 0 324 347 30 295 283 282 304 294 277 311 229 251 226 233 294 266 290 218 228 339 324 336 344 346
92 101 145 12 112 73 5 91 41 34 33 39 58 39 49 73 179 100 43 169 14 5 25 5 252 292 281 192 115 93 67 75 310 277 211 244 266 18 257 321 339 326 347 348 354
122 122 73 61 76 68 85 38 102 34 54 53 84 79 94 69 38 31 303 6 337 8 25 192 250 257 269 302 328 292 282 304 299 267 269 251 288 299 7 355 359 349 351 3 5
64 76 100 119 70 81 67 27 60 44 53 38 74 69 82 153 325 258 302 319 322 7 83 11 276 276 280 279 277 278 284 287 264 261 259 285 280 316 349 348 355 352 358 8 8
78 90 83 72 51 113 20 47 58 66 8 42 91 88 112 196 260 277 284 241 298 26 357 346 269 287 285 282 268 265 267 269 272 267 268 269 262 7 353 6 20 15 11 11 7
53 66 84 11 76 163 88 138 86 190 75 66 22 173 180 116 302 282 277 277 275 278 272 245 247 243 279 343 310 272 305 305 299 21 311 264 10 346 1 13 33 22 16 13 6